Flag for U.S.A. Weather past 2 weeks in Jersey City, New Jersey, U.S.A.

Now
70 °F

Partly cloudy.


Feels Like: 69 °F
Forecast: 68 / 82 °F
Wind: 3 mph from South

Location: Newark International Airport

Current Time: Aug 20, 2014 at 1:16:48 AM

Latest Report: Aug 20, 2014 at 12:51 AM


Visibility: 10 mi

Pressure: 29.94 "Hg

Humidity: 84%

Dew point: 65 °F

Location of Jersey CityLocation

Historic Weather in Jersey City — Graph

°F

Jersey City temperature yesterday

Maximum temperature yesterday: 81 °F (at 1:51 PM)
Minimum temperature yesterday: 63 °F (at 5:51 AM)
Average temperature yesterday: 73 °F

Past Weeks' High & Low Weather Summary

 TemperatureHumidityPressure
High89 °F (Aug 5, 2:51 PM)97% (Aug 13, 8:51 AM)30.14 "Hg (Aug 13, 8:51 AM)
Low58 °F (Aug 16, 6:51 AM)26% (Aug 7, 3:51 PM)29.65 "Hg (Aug 13, 4:51 PM)
Average75 °F56%29.95 "Hg
* Reported Aug 4 11:51 PM — Aug 19 11:51 PM, Jersey City, Weather by CustomWeather, © 2014

Note: Actual official high and low records may vary slightly from our data, if they occured in-between our weather recording intervals... More about our weather records

Advertising

Jersey City weather history for previous 24 hours

 ConditionsComfort  
Time TempWeatherWind HumidityBarometerVisibility
11:51 PM
Aug 19
72 °FPassing clouds.3 mph81%29.94 "Hg10 mi
10:51 PM73 °FPassing clouds.3 mph76%29.92 "Hg10 mi
9:51 PM73 °FPassing clouds.3 mph74%29.92 "Hg10 mi
8:51 PM74 °FPassing clouds.6 mph71%29.90 "Hg10 mi
7:51 PM75 °FPartly sunny.8 mph71%29.90 "Hg10 mi
6:51 PM77 °FSunny.7 mph66%29.88 "Hg10 mi
5:51 PM78 °FPartly sunny.9 mph62%29.87 "Hg10 mi
4:51 PM79 °FBroken clouds.6 mph60%29.88 "Hg10 mi
3:51 PM80 °FBroken clouds.8 mph56%29.89 "Hg10 mi
2:51 PM80 °FBroken clouds.10 mph56%29.89 "Hg10 mi
1:51 PM81 °FBroken clouds.7 mph44%29.89 "Hg10 mi
12:51 PM79 °FScattered clouds.3 mph54%29.90 "Hg10 mi
11:51 AM78 °FScattered clouds.7 mph56%29.92 "Hg10 mi
10:51 AM76 °FBroken clouds.3 mph60%29.92 "Hg10 mi
9:51 AM74 °FScattered clouds.5 mph60%29.91 "Hg10 mi
8:51 AM71 °FScattered clouds.9 mph61%29.90 "Hg10 mi
7:51 AM67 °FScattered clouds.9 mph68%29.90 "Hg10 mi
6:51 AM64 °FPassing clouds.10 mph75%29.89 "Hg10 mi
5:51 AM63 °FPassing clouds.9 mph73%29.88 "Hg10 mi
4:51 AM64 °FPassing clouds.8 mph70%29.86 "Hg10 mi
3:51 AM65 °FPassing clouds.6 mph68%29.86 "Hg10 mi
2:51 AM66 °FPartly cloudy.8 mph65%29.86 "Hg10 mi
1:51 AM66 °FPartly cloudy.8 mph68%29.86 "Hg10 mi
Weather by CustomWeather, © 2014

See weather overviewHow to use our weather pages